Regional Weather Roundup
Issued by NWS

Home | Current Version | Previous Version | Text Only | Print | Product List | Glossary On
Versions: 1 2 3 4 5 6 7 8 9 10 11 12 13 14 15 16 17 18 19 20 21 22 23 24 25 26 27 28 29 30 31 32 33 34 35 36 37 38 39 40 41 42 43 44 45 46 47 48 49 50
000
ASUS43 KLSX 260110
RWRMO

WEATHER SUMMARY FOR MISSOURI
NATIONAL WEATHER SERVICE SPRINGFIELD MO
800 PM CDT TUE APR 25 2017

NOTE: "FAIR" INDICATES FEW OR NO CLOUDS BELOW 12,000 FEET WITH NO
       SIGNIFICANT WEATHER AND/OR OBSTRUCTIONS TO VISIBILITY.
       CURRENT SKY AND/OR WEATHER CONDITIONS ARE NOT AVAILABLE FOR
       CHILLICOTHE AND FARMINGTON.

MOZ001>031-035>038-043-044-053-054-260200-
...NORTHERN AND WESTERN MISSOURI...

CITY           SKY/WX    TMP DP  RH WIND       PRES   REMARKS
KANSAS CTY INT CLOUDY    67  57  70 NW5       29.44R
KANSAS C DTWN  CLOUDY    71  57  61 W3        29.42S
LEE`S SUMMIT   CLOUDY    70  58  65 S7        29.43S
ST JOSEPH      LGT RAIN  60  50  69 NW14      29.46R
CHILLICOTHE      N/A     68  57  68 CALM      29.44R
KIRKSVILLE     CLOUDY    71  54  54 NW5       29.44R

$$
MOZ066>068-077>081-088>096-101>105-260200-
...SOUTHWEST MISSOURI...

CITY           SKY/WX    TMP DP  RH WIND       PRES   REMARKS
SPRINGFIELD    CLOUDY    75  60  59 S9        29.45S
JOPLIN         MOCLDY    73  61  65 S13       29.44S
BRANSON        MOCLDY    73  59  60 S9G18     29.50R

$$
MOZ032>034-039>042-045>050-055>058-069>072-260200-
...CENTRAL MISSOURI...

CITY           SKY/WX    TMP DP  RH WIND       PRES   REMARKS
COLUMBIA       CLOUDY    75  55  49 S10       29.45R
JEFFERSON CITY CLOUDY    78  54  43 SE8       29.44R
ROLLA          PTCLDY    72  53  51 S12       29.48R
SEDALIA        MOCLDY    74  59  59 W5        29.44R
WHITEMAN AFB   CLOUDY    71  61  71 CALM      29.43R
OSAGE BEACH    CLOUDY    76  56  49 S8        29.46R

$$
MOZ051-052-059>065-260200-
...EAST CENTRAL MISSOURI...

CITY           SKY/WX    TMP DP  RH WIND       PRES   REMARKS
ST LOUIS INTL  MOCLDY    77  48  35 S13       29.50R
SPIRIT OF STL  CLOUDY    75  50  41 S6        29.48R
ST CHARLES     PTCLDY    76  49  38 S17       29.48R

$$
MOZ072>076-082>087-097>100-106>115-260200-
...SOUTH CENTRAL AND SOUTHEAST MISSOURI...

CITY           SKY/WX    TMP DP  RH WIND       PRES   REMARKS
CAPE GIRARDEAU CLEAR     72  51  47 S8        29.54F
FARMINGTON     CLEAR     71  51  49 S9        29.55R
POPLAR BLUFF   CLEAR     73  54  51 S10       29.54S
WEST PLAINS    CLEAR     71  53  52 S9        29.54R

$$



USA.gov is the U.S. government's official web portal to all federal, state and local government web resources and services.